Jackpot

Texas Poker Multi Jackpot System

Kini Telah hadir Jackpot SUPER ROYAL FLUSH

Kini Telah hadir Jackpot 2000 (khusus table VIP keatas).

Ikutilah global jackpot yang tersedia di system kami, dengan system jackpot terbaru dan pertama di indonesia, anda dapat membeli jackpot dengan harga 100 rupiah saja dan menangkan hadiahnya hingga puluhan juta rupiah.

Jackpot bukanlah suatu keharusan untuk dibeli, namun kami memberikan suatu fitur tambahan untuk member tercinta dari www.oppopoker.com.

Terdapat tiga pilihan harga jackpot yang bisa anda beli yaitu :100,500,1000 dan 2000(khusus table VIP Keatas) rupiah.

Hadiah dari Multi jackpot system www.oppopoker.com

  1. full house x 10 harga jackpot yang anda beli.
      (contoh:anda membeli 1000 maka:1000 X10 = 10.000)
  2. four of kind x 250 harga jackpot yang anda beli
      (contoh:anda membeli 1000 maka:1000 X250 = 250.000)
  3. Straight flush x 1200
      (contoh:anda membeli 1000 maka:1000 X1200 = 1.200.000)
  4. Royal flush x 10000 harga jackpot yang anda beli
      (contoh:anda membeli 1000 maka:1000 X10000 = 10.000.000)
  5. SUPER ROYAL FLUSH x 30000 harga jackpot yang anda beli
      (contoh:anda membeli 1000 maka:1000 X30000 = 30.000.000)

Kondisi kartu

  1. full house adalah kondisi kartu dimana kartu anda dan kartu tengah dengan total 7 kartu bisa mendapatkan nilai 5 kartu dengan kombinasi 1 tris(three of kind) dan 1 pair, contoh 3 kartu 10 dan 2 kartu 5
  2. Four of kind adalah kondisi kartu dimana kartu anda dan kartu tengah dengan total 7 kartu bisa mendapatkan nilai 5 kartu dengan kombinasi 4 kartu yang sama jumlah dan 1 kartu apapun juga contoh anda mendapatkan 4 buah kartu angka 3 dan 1 kartu apapun.
  3. Staright flush adalah kondisi kartu dimana kartu anda dan kartu tengah dengan total 7 kartu bisa mendapatkan nilai 5 kartu dengan kombinasi seri / staright dengan kembang yang sama contoh : urutan kartu dari angka 5, 6, 7, 8 , 9 10 dengan kembang yg sama misalnya as hati
  4. Royal flush adalah kondisi kartu dimana kartu anda dan kartu tengah dengan total 7 kartu bisa mendapatkan nilai 5 kartu dengan kombinasi seri / staright dengan kembang yang sama tetapi kartu tersebut haruslah dimulai dari 10. contoh 10, Queen, Jack, King dan aces dengan kembang yang sama
  5. Super Royal flush adalah kondisi kartu dimana Kedua kartu anda digabung dengan 3 kartu pertama meja haruslah royal flush. contoh kartu anda 10,Queen kembang sama dan 3 kartu pertama meja adalah Jack, King dan aces dengan kembang yang sama

Demikian adalah penjelasan dari Multi Jackpot www.oppopoker.com terima kasih dan selamat bermain salam hoki dari kami

Texas Poker Jackpot Winner

TOP SUPER ROYAL FLUSH
No.TanggalNamaPriceWin
126/04 13:23USMANN98Super Royal flush15,000,000
226/04 01:26KODIM_07Super Royal flush15,000,000
325/04 21:30TODESBAESuper Royal flush15,000,000
425/04 20:10HXZPWV2NWWSuper Royal flush30,000,000
525/04 20:04ROSAVERINASuper Royal flush15,000,000
TOP ROYAL FLUSH
No.TanggalNamaPriceWin
126/04 14:43REZADANARoyal flush1,000,000
226/04 14:27DAGJ4LRoyal flush5,000,000
326/04 14:24RG89Royal flush1,000,000
426/04 14:13ALWY66Royal flush5,000,000
526/04 13:35D0K013Royal flush5,000,000
TOP STRAIGHT FLUSH
No.TanggalNamaPriceWin
126/04 14:46SAKEUSS22Straight Flush120,000
226/04 14:46MASFENDIStraight Flush1,200,000
326/04 14:46QQYAN02Straight Flush120,000
426/04 14:41REDTOTStraight Flush120,000
526/04 14:38SIMPULStraight Flush600,000
LATEST JACKPOT
No.TanggalNamaPriceWin
126/04 14:47JACP0T88Full House10,000
226/04 14:47FREDLY01Full House1,000
326/04 14:47MAWAR24Full House5,000
426/04 14:47CR9000Full House5,000
526/04 14:47MINA54Full House5,000
626/04 14:47ASPOKER123Full House10,000
726/04 14:47KEMOY27Full House20,000
826/04 14:47TT988XOMOM988Full House1,000
926/04 14:47C4TTTFull House10,000
1026/04 14:47TAPOS28Full House10,000
1126/04 14:47LIYUSTOGLEFull House1,000
1226/04 14:46SEMBUH88Full House1,000
1326/04 14:46TZ2J9ZPEV4Full House1,000
1426/04 14:46RIJALPDDFull House1,000
1526/04 14:46INARA_201Full House1,000
1626/04 14:46NAHA14Full House5,000
1726/04 14:46S124WERFull House1,000
1826/04 14:46AED07665Full House5,000
1926/04 14:46BEDJO9912Full House5,000
2026/04 14:46TUSUK01Full House1,000
2126/04 14:46QSANDEX88Full House10,000
2226/04 14:46MZ220108Full House1,000
2326/04 14:46OREX508Full House1,000
2426/04 14:46MAC16Full House5,000
2526/04 14:46CRV484Full House20,000
2626/04 14:46SAKEUSS22Straight Flush120,000
2726/04 14:46MASFENDIStraight Flush1,200,000
2826/04 14:46DEDI110878Full House1,000
2926/04 14:46MATRIKFull House1,000
3026/04 14:46KUBU8888Full House5,000
3126/04 14:46C883EDF7Full House1,000
3226/04 14:46HOKY57888Four Of A Kind25,000
3326/04 14:46QQYAN02Straight Flush120,000
3426/04 14:46GOJEKSAKTIFull House10,000
3526/04 14:46QSANDEX88Full House10,000
3626/04 14:46LUCKYDUCKYFull House1,000
3726/04 14:46SERAYAFull House5,000
3826/04 14:46YUSUPPMPFull House10,000
3926/04 14:46ARI3L02Four Of A Kind125,000
4026/04 14:46VH316Full House5,000
4126/04 14:46JELOO99Full House1,000
4226/04 14:46ZOMPLAKFull House10,000
4326/04 14:46LIMSOEN89Full House5,000
4426/04 14:46D0HFull House1,000
4526/04 14:46BULDOZER00Full House1,000
4626/04 14:46AGEN99999Full House1,000
4726/04 14:46KUCUL80Full House10,000
4826/04 14:46BENARFANFull House1,000
4926/04 14:46LIRA1988Full House1,000
5026/04 14:46C4TTTFull House10,000

Domino Multi Jackpot System

Ikutilah global jackpot yang tersedia di system kami, dengan system jackpot terbaru dan pertama di indonesia, anda dapat membeli jackpot dengan harga 100 rupiah saja dan menangkan hadiahnya hingga puluhan juta rupiah.

Jackpot bukanlah suatu keharusan untuk dibeli, namun kami memberikan suatu fitur tambahan untuk member tercinta dari www.oppopoker.com.

Terdapat tiga pilihan harga jackpot yang bisa anda beli yaitu :100,500 dan 1000 rupiah.

Hadiah dari Multi jackpot system www.oppopoker.com

  1. Murni Kecil x 50 harga jackpot yang anda beli.
      (contoh:anda membeli 1000 maka:1000 X 50 = 50.000)
  2. Murni Besar x 50 harga jackpot yang anda beli
      (contoh:anda membeli 1000 maka:1000 X 50 = 50.000)
  3. BALAK x 100 harga jackpot yang anda beli
      (contoh:anda membeli 1000 maka:1000 X 100 = 100.000)
  4. ENAM DEWA x 6666 harga jackpot yang anda beli
      (contoh:anda membeli 1000 maka:1000 X 6666 = 6.666.000)

Demikian adalah penjelasan dari Multi Jackpot www.oppopoker.com terima kasih dan selamat bermain salam hoki dari kami

Domino Jackpot Winner

TOP ENAM DEWA
No.TanggalNamaPriceWin
126/04 13:32BALU17K4L1murni enam3,333,000
226/04 02:51MANGALOHmurni enam6,666,000
325/04 23:38ON99911murni enam666,600
425/04 23:25A56E14DBmurni enam666,600
525/04 22:28ZAL808murni enam6,666,000
TOP BALAK
No.TanggalNamaPriceWin
126/04 14:46BU4Y0balak50,000
226/04 14:44KPN72balak100,000
326/04 14:43DIDIK096balak10,000
426/04 14:40KINGJ3MISbalak50,000
526/04 14:39BAONK25balak50,000
LATEST JACKPOT
No.TanggalNamaPriceWin
126/04 14:47BODREXBNmurni besar25,000
226/04 14:47CHIKOMIG33murni besar25,000
326/04 14:46BU4Y0balak50,000
426/04 14:45KAYORAY0murni besar25,000
526/04 14:44OVICKBHEmurni kecil25,000
626/04 14:44UNYI11murni besar50,000
726/04 14:44KPN72balak100,000
826/04 14:44BATEX9999murni kecil50,000
926/04 14:43DIDIK096balak10,000
1026/04 14:43TEMPEKTUOmurni besar50,000
1126/04 14:42DORMAN17murni kecil5,000
1226/04 14:42W90murni kecil50,000
1326/04 14:41AADAKAHHmurni besar50,000
1426/04 14:40KINGJ3MISbalak50,000
1526/04 14:40BANGTONGAmurni besar25,000
1626/04 14:39BAONK25balak50,000
1726/04 14:39KUDEL90murni besar5,000
1826/04 14:38KATONGKmurni kecil5,000
1926/04 14:37BRONIZ15murni besar50,000
2026/04 14:37INVOKEERbalak10,000
2126/04 14:37ONEPLUS07murni besar25,000
2226/04 14:37PIC_SHUITmurni besar25,000
2326/04 14:36APIT10murni besar50,000
2426/04 14:36ADITMJP007murni besar5,000
2526/04 14:35ZAKI2903murni kecil50,000
2626/04 14:35KOCUS8686murni besar25,000
2726/04 14:34AAM099murni besar50,000
2826/04 14:34BEBOROmurni kecil50,000
2926/04 14:34RUDET02murni besar25,000
3026/04 14:33R1F4N1murni besar50,000
3126/04 14:32FERRUZZLmurni besar50,000
3226/04 14:32PSKXXmurni kecil50,000
3326/04 14:31ARDI8889murni besar5,000
3426/04 14:31BEBOROmurni kecil50,000
3526/04 14:30TEMPEKTUOmurni kecil25,000
3626/04 14:29NAHLOHmurni kecil50,000
3726/04 14:29PARNO8murni besar25,000
3826/04 14:28SYAMSIEmurni besar25,000
3926/04 14:26BRAZOKmurni besar25,000
4026/04 14:26APLIRSA69balak50,000
4126/04 14:25IMANGB88murni besar50,000
4226/04 14:25H11RV424U6murni besar5,000
4326/04 14:24ALAY_BYEmurni besar5,000
4426/04 14:24TOPPU88murni besar50,000
4526/04 14:24MBOKMENAWImurni besar25,000
4626/04 14:24WAND1990balak10,000
4726/04 14:24BELEDUD89murni besar25,000
4826/04 14:23SELENTEMmurni kecil50,000
4926/04 14:22ZHOKI99balak10,000
5026/04 14:21BODREXBNmurni kecil5,000

Ceme Multi Jackpot System

Jackpot dilihat dari gabungan kartu pemain dengan kartu bandar. Bandar harus membeli jackpot sebanyak jumlah player yang sedang duduk. Sebagai contoh bila terdapat 3 pemain duduk bermain, dan bandar memutuskan untuk membeli jackpot Rp 1.000, maka pada periode tersebut bandar akan membeli jackpot sebanyak 3xRp1.000 = Rp3.000.

Jackpot bukanlah suatu keharusan untuk dibeli, namun kami memberikan suatu fitur tambahan untuk member tercinta dari www.oppopoker.com.

Terdapat tiga pilihan harga jackpot yang bisa anda beli yaitu :100,500 dan 1000 rupiah.

Hadiah dari Multi jackpot system www.oppopoker.com

  1. Murni Kecil x 50 harga jackpot yang anda beli.
      (contoh:anda membeli 1000 maka:1000 X 50 = 50.000)
  2. Murni Besar x 50 harga jackpot yang anda beli
      (contoh:anda membeli 1000 maka:1000 X 50 = 50.000)
  3. BALAK x 200 harga jackpot yang anda beli
      (contoh:anda membeli 1000 maka:1000 X 200 = 200.000)
  4. ENAM DEWA x 6666 harga jackpot yang anda beli
      (contoh:anda membeli 1000 maka:1000 X 6666 = 6.666.000)

Demikian adalah penjelasan dari Multi Jackpot www.oppopoker.com terima kasih dan selamat bermain salam hoki dari kami

Ceme Jackpot Winner

TOP ENAM DEWA
No.TanggalNamaPriceWin
126/04 14:25BOS123Smurni enam6,666,000
226/04 14:13JDI7YTGLOZmurni enam666,600
326/04 13:11HAFIZH00murni enam666,600
426/04 12:44ADIPOLENGmurni enam3,333,000
526/04 11:37BOSQMImurni enam3,333,000
TOP BALAK
No.TanggalNamaPriceWin
126/04 14:47GHIB93balak20,000
226/04 14:47MIMI112balak20,000
326/04 14:46EGIW456balak20,000
426/04 14:45LAUTKU99balak200,000
526/04 14:44KOZEX55balak200,000
LATEST JACKPOT
No.TanggalNamaPriceWin
126/04 14:47GHIB93balak20,000
226/04 14:47MIMI112balak20,000
326/04 14:47DORODONKERmurni kecil50,000
426/04 14:47MATAHARI91murni kecil50,000
526/04 14:46EGIW456balak20,000
626/04 14:46RYNDRA26murni kecil25,000
726/04 14:46DIPPERmurni kecil5,000
826/04 14:45DEWIR72murni kecil50,000
926/04 14:45LAUTKU99balak200,000
1026/04 14:45O738murni kecil50,000
1126/04 14:45QQHARIYANTmurni kecil5,000
1226/04 14:44OCHID77murni kecil25,000
1326/04 14:44DOW4HYUmurni kecil25,000
1426/04 14:44AWIWIKmurni kecil25,000
1526/04 14:44KOZEX55balak200,000
1626/04 14:44WINTRUS07balak20,000
1726/04 14:44MOELBOENmurni kecil5,000
1826/04 14:44RANVEERKUmurni kecil50,000
1926/04 14:44GHIB93murni kecil5,000
2026/04 14:44BAQQI13murni besar50,000
2126/04 14:44SEVILLA99murni kecil50,000
2226/04 14:44DARREN14murni kecil50,000
2326/04 14:44MA9NIT9murni besar25,000
2426/04 14:44DOM78murni besar25,000
2526/04 14:43EBOX99balak20,000
2626/04 14:43DALWINDERbalak200,000
2726/04 14:43EBOX99murni besar5,000
2826/04 14:43PANJUL0BOmurni besar50,000
2926/04 14:43EBOX99murni besar5,000
3026/04 14:43W99POKERmurni besar25,000
3126/04 14:43ALDINBOBbalak20,000
3226/04 14:43AZIZNURRCOmurni kecil25,000
3326/04 14:43ICAAJAH22murni kecil25,000
3426/04 14:43RASYA99Bmurni kecil25,000
3526/04 14:43FHITRA26murni kecil5,000
3626/04 14:43ANDYALBERNmurni kecil5,000
3726/04 14:42H0KI501murni besar25,000
3826/04 14:42WINNYLIMZZmurni kecil50,000
3926/04 14:42PUTURAMAmurni besar50,000
4026/04 14:42G20FIZX4R6balak20,000
4126/04 14:42RING23balak20,000
4226/04 14:42AEUU98balak100,000
4326/04 14:42AN3DIS89balak200,000
4426/04 14:42ALLBY01murni besar50,000
4526/04 14:42BONGKEK87balak20,000
4626/04 14:42BAGONG199balak200,000
4726/04 14:42LONTE303murni kecil50,000
4826/04 14:42ACIED212balak200,000
4926/04 14:42ACIED212murni besar50,000
5026/04 14:42ATTUNG77murni kecil50,000